| time (UTC) | temp F | wind direction | speed MPH | gust MPH | rain 1hr in | rain 24hr in | rain mn in | humidity % | barometer mb |
| 20260505163034 | 60 | 88 | 2.0 | 8.0 | 0.00 | 0.00 | 0.00 | 50 | 1011.3 |
| 20260505161533 | 60 | 76 | 3.0 | 11.0 | 0.00 | 0.00 | 0.00 | 47 | 1011.4 |
| 20260505153036 | 61 | 62 | 3.0 | 10.0 | 0.00 | 0.00 | 0.00 | 44 | 1011.5 |
| 20260505151541 | 62 | 59 | 1.0 | 14.0 | 0.00 | 0.00 | 0.00 | 43 | 1011.5 |
| 20260505124541 | 64 | 80 | 3.0 | 10.0 | 0.00 | 0.00 | 0.00 | 50 | 1011.9 |
| 20260505123040 | 65 | 0 | 3.0 | 14.0 | 0.00 | 0.00 | 0.00 | 51 | 1011.9 |
| 20260505121539 | 63 | 0 | 1.0 | 14.0 | 0.00 | 0.00 | 0.00 | 55 | 1011.9 |
| 20260505120036 | 60 | 40 | 5.0 | 12.0 | 0.00 | 0.00 | 0.00 | 55 | 1012.0 |
| 20260505114541 | 61 | 0 | 0.0 | 16.0 | 0.00 | 0.00 | 0.00 | 55 | 1012.0 |
| 20260505113047 | 62 | 48 | 5.0 | 14.0 | 0.00 | 0.00 | 0.00 | 52 | 1012.2 |
| 20260505111537 | 62 | 40 | 3.0 | 12.0 | 0.00 | 0.00 | 0.00 | 58 | 1012.3 |
| 20260505101556 | 59 | 351 | 2.0 | 8.0 | 0.00 | 0.00 | 0.00 | 69 | 1012.3 |
| 20260505100055 | 57 | 0 | 1.0 | 11.0 | 0.00 | 0.00 | 0.00 | 69 | 1012.4 |
| 20260505094535 | 56 | 0 | 1.0 | 9.0 | 0.00 | 0.00 | 0.00 | 70 | 1012.6 |
| 20260505093035 | 56 | 5 | 1.0 | 8.0 | 0.00 | 0.00 | 0.00 | 70 | 1012.6 |
| 20260505091536 | 57 | 16 | 1.0 | 6.0 | 0.00 | 0.00 | 0.00 | 69 | 1012.7 |
| 20260505090036 | 55 | 30 | 4.0 | 10.0 | 0.00 | 0.00 | 0.00 | 72 | 1012.6 |
| 20260505084535 | 54 | 320 | 1.0 | 11.0 | 0.00 | 0.00 | 0.00 | 72 | 1012.7 |
| 20260505083038 | 54 | 313 | 0.0 | 9.0 | 0.00 | 0.00 | 0.00 | 74 | 1012.7 |
| 20260505081536 | 54 | 46 | 1.0 | 6.0 | 0.00 | 0.00 | 0.00 | 76 | 1012.7 |
| 20260505080046 | 53 | 310 | 1.0 | 9.0 | 0.00 | 0.00 | 0.00 | 78 | 1012.8 |
| 20260505074535 | 53 | 293 | 0.0 | 4.0 | 0.00 | 0.00 | 0.00 | 78 | 1012.8 |
| 20260505073104 | 53 | 0 | 0.0 | 9.0 | 0.00 | 0.00 | 0.00 | 78 | 1012.7 |
| 20260505071542 | 53 | 0 | 1.0 | 5.0 | 0.00 | 0.00 | 0.00 | 80 | 1012.5 |
| 20260505070037 | 53 | 0 | 0.0 | 4.0 | 0.00 | 0.00 | 0.00 | 81 | 1012.6 |
| 20260505064545 | 52 | 30 | 0.0 | 6.0 | 0.00 | 0.00 | 0.00 | 83 | 1012.8 |
| 20260505063047 | 52 | 84 | 1.0 | 6.0 | 0.00 | 0.00 | 0.00 | 86 | 1012.9 |
| 20260505061541 | 51 | 0 | 0.0 | 4.0 | 0.00 | 0.00 | 0.00 | 87 | 1013.0 |
| 20260505060046 | 50 | 0 | 1.0 | 8.0 | 0.00 | 0.00 | 0.00 | 88 | 1012.8 |
| 20260505054544 | 50 | 309 | 0.0 | 5.0 | 0.00 | 0.00 | 0.00 | 88 | 1012.8 |
| 20260505053046 | 50 | 0 | 0.0 | 2.0 | 0.00 | 0.00 | 0.00 | 88 | 1012.8 |
| 20260505051541 | 50 | 0 | 0.0 | 4.0 | 0.00 | 0.00 | 0.00 | 88 | 1012.8 |
| 20260505041539 | 50 | 0 | 0.0 | 9.0 | 0.00 | 0.00 | 0.00 | 87 | 1013.0 |
| 20260505040040 | 50 | 61 | 2.0 | 5.0 | 0.00 | 0.00 | 0.00 | 87 | 1013.0 |
| 20260505034546 | 50 | 32 | 0.0 | 3.0 | 0.00 | 0.00 | 0.00 | 87 | 1013.2 |
| 20260505033036 | 50 | 64 | 0.0 | 3.0 | 0.00 | 0.00 | 0.00 | 87 | 1013.2 |
| 20260505031547 | 51 | 0 | 0.0 | 6.0 | 0.00 | 0.00 | 0.00 | 87 | 1013.3 |
| 20260505030042 | 51 | 0 | 0.0 | 8.0 | 0.00 | 0.00 | 0.00 | 87 | 1013.2 |
| 20260505024536 | 51 | 47 | 4.0 | 11.0 | 0.00 | 0.00 | 0.00 | 87 | 1013.3 |
| 20260505023037 | 51 | 55 | 1.0 | 5.0 | 0.00 | 0.00 | 0.00 | 87 | 1013.5 |
| 20260505021537 | 51 | 0 | 1.0 | 5.0 | 0.00 | 0.00 | 0.00 | 87 | 1013.5 |
| 20260505020041 | 51 | 0 | 0.0 | 5.0 | 0.00 | 0.00 | 0.00 | 86 | 1013.6 |
| 20260505014540 | 51 | 0 | 0.0 | 4.0 | 0.00 | 0.00 | 0.00 | 86 | 1013.6 |
| 20260505013037 | 52 | 59 | 0.0 | 7.0 | 0.00 | 0.00 | 0.00 | 86 | 1013.9 |
| 20260505011538 | 52 | 53 | 0.0 | 3.0 | 0.00 | 0.00 | 0.00 | 86 | 1013.7 |
| 20260505010100 | 52 | 0 | 0.0 | 5.0 | 0.00 | 0.00 | 0.00 | 86 | 1014.0 |
| 20260505004541 | 52 | 0 | 0.0 | 5.0 | 0.00 | 0.00 | 0.00 | 86 | 1014.1 |
| 20260505003041 | 52 | 64 | 2.0 | 6.0 | 0.00 | 0.00 | 0.00 | 86 | 1014.3 |
| 20260505001536 | 52 | 75 | 1.0 | 8.0 | 0.00 | 0.00 | 0.00 | 86 | 1014.3 |
| 20260505000043 | 52 | 0 | 1.0 | 9.0 | 0.00 | 0.00 | 0.00 | 86 | 1014.3 |
| 20260504234536 | 52 | 0 | 0.0 | 5.0 | 0.00 | 0.00 | 0.00 | 86 | 1014.3 |
| 20260504233035 | 53 | 59 | 1.0 | 8.0 | 0.00 | 0.00 | 0.00 | 86 | 1014.2 |
| 20260504231544 | 53 | 0 | 0.0 | 4.0 | 0.00 | 0.00 | 0.00 | 86 | 1014.1 |
| 20260504230044 | 53 | 0 | 0.0 | 7.0 | 0.00 | 0.00 | 0.00 | 86 | 1014.3 |
| 20260504224536 | 53 | 0 | 0.0 | 3.0 | 0.00 | 0.00 | 0.00 | 85 | 1014.5 |
| 20260504223036 | 53 | 71 | 1.0 | 5.0 | 0.00 | 0.00 | 0.00 | 85 | 1014.5 |
| 20260504221548 | 54 | 60 | 0.0 | 1.0 | 0.00 | 0.00 | 0.00 | 84 | 1014.4 |
| 20260504220039 | 54 | 0 | 0.0 | 3.0 | 0.00 | 0.00 | 0.00 | 83 | 1014.5 |
| 20260504214535 | 54 | 0 | 0.0 | 2.0 | 0.00 | 0.00 | 0.00 | 83 | 1014.4 |
| 20260504213047 | 54 | 0 | 0.0 | 4.0 | 0.00 | 0.00 | 0.00 | 83 | 1014.4 |
| 20260504211540 | 55 | 0 | 0.0 | 5.0 | 0.00 | 0.00 | 0.00 | 82 | 1014.5 |
| 20260504210037 | 55 | 49 | 0.0 | 6.0 | 0.00 | 0.00 | 0.00 | 82 | 1014.5 |
| 20260504204538 | 55 | 40 | 0.0 | 4.0 | 0.00 | 0.00 | 0.00 | 82 | 1014.6 |
| 20260504203048 | 55 | 0 | 0.0 | 1.0 | 0.00 | 0.00 | 0.00 | 81 | 1014.5 |
| 20260504201535 | 56 | 0 | 0.0 | 1.0 | 0.00 | 0.00 | 0.00 | 80 | 1014.4 |
| 20260504200036 | 56 | 0 | 0.0 | 2.0 | 0.00 | 0.00 | 0.00 | 80 | 1014.3 |
| 20260504194544 | 56 | 0 | 0.0 | 2.0 | 0.00 | 0.00 | 0.00 | 79 | 1014.3 |
| 20260504193039 | 57 | 0 | 0.0 | 2.0 | 0.00 | 0.00 | 0.00 | 79 | 1014.0 |
| 20260504191540 | 57 | 0 | 0.0 | 1.0 | 0.00 | 0.00 | 0.00 | 77 | 1013.9 |
| 20260504190038 | 58 | 0 | 0.0 | 2.0 | 0.00 | 0.00 | 0.00 | 76 | 1013.9 |
| 20260504184535 | 58 | 0 | 0.0 | 3.0 | 0.00 | 0.00 | 0.00 | 74 | 1013.8 |
| 20260504183043 | 59 | 0 | 0.0 | 6.0 | 0.00 | 0.00 | 0.00 | 73 | 1013.7 |
| 20260504181540 | 60 | 0 | 0.0 | 9.0 | 0.00 | 0.00 | 0.00 | 72 | 1013.7 |
| 20260504180046 | 60 | 80 | 4.0 | 11.0 | 0.00 | 0.00 | 0.00 | 71 | 1013.7 |
| 20260504174535 | 62 | 36 | 2.0 | 10.0 | 0.00 | 0.00 | 0.00 | 69 | 1013.8 |
| 20260504173043 | 63 | 31 | 0.0 | 9.0 | 0.00 | 0.00 | 0.00 | 68 | 1013.7 |
| 20260504171543 | 64 | 82 | 1.0 | 8.0 | 0.00 | 0.00 | 0.00 | 67 | 1013.7 |